TimeEST,TemperatureF,Dew PointF,Humidity,Sea Level PressureIn,VisibilityMPH,Wind Direction,Wind SpeedMPH,Gust SpeedMPH,PrecipitationIn,Events,Conditions,WindDirDegrees,DateUTC
12:03 AM,77.0,71.6,83,30.12,9.0,ENE,17.3,25.3,N/A,,Overcast,70,2013-11-22 05:03:00
12:51 AM,73.4,71.6,94,30.13,2.5,ESE,17.3,23.0,0.07,Rain,Light Rain,110,2013-11-22 05:51:00
12:53 AM,73.0,70.0,90,30.13,2.0,ESE,16.1,23.0,0.10,Rain,Light Rain,110,2013-11-22 05:53:00
1:01 AM,73.4,69.8,88,30.12,1.5,SE,12.7,-,0.07,Rain,Heavy Rain,130,2013-11-22 06:01:00
1:07 AM,73.4,71.6,94,30.12,3.0,ESE,9.2,-,0.07,Rain,Light Rain,120,2013-11-22 06:07:00
1:23 AM,75.2,71.6,89,30.11,4.0,East,10.4,19.6,0.09,Rain,Light Rain,90,2013-11-22 06:23:00
1:53 AM,77.0,71.1,82,30.11,8.0,ENE,16.1,25.3,0.09,,Overcast,70,2013-11-22 06:53:00
2:09 AM,77.0,71.6,83,30.10,9.0,ENE,20.7,25.3,N/A,,Overcast,70,2013-11-22 07:09:00
2:42 AM,77.0,71.6,83,30.11,9.0,ENE,16.1,24.2,N/A,Thunderstorm,Mostly Cloudy,60,2013-11-22 07:42:00
2:53 AM,77.0,71.1,82,30.10,9.0,ENE,18.4,24.2,N/A,,Overcast,60,2013-11-22 07:53:00
3:01 AM,77.0,69.8,78,30.10,9.0,ENE,17.3,25.3,N/A,Thunderstorm,Overcast,60,2013-11-22 08:01:00
3:16 AM,77.0,71.6,83,30.10,9.0,ENE,13.8,23.0,N/A,,Overcast,70,2013-11-22 08:16:00
3:53 AM,77.0,70.0,79,30.10,9.0,ENE,17.3,23.0,N/A,,Mostly Cloudy,60,2013-11-22 08:53:00
4:53 AM,77.0,70.0,79,30.10,9.0,ENE,18.4,24.2,N/A,,Overcast,70,2013-11-22 09:53:00
5:08 AM,77.0,69.8,78,30.10,9.0,ENE,20.7,26.5,N/A,,Overcast,60,2013-11-22 10:08:00
5:17 AM,77.0,69.8,78,30.11,9.0,ENE,16.1,26.5,N/A,,Overcast,70,2013-11-22 10:17:00
5:31 AM,77.0,69.8,78,30.11,9.0,ENE,15.0,21.9,N/A,,Overcast,60,2013-11-22 10:31:00
5:53 AM,77.0,69.1,76,30.12,9.0,ENE,18.4,25.3,N/A,,Overcast,70,2013-11-22 10:53:00
6:04 AM,77.0,69.8,78,30.11,9.0,ENE,18.4,24.2,N/A,,Overcast,70,2013-11-22 11:04:00
6:53 AM,77.0,69.1,76,30.12,8.0,ENE,13.8,23.0,0.01,,Overcast,70,2013-11-22 11:53:00
7:53 AM,78.1,70.0,76,30.14,8.0,ENE,16.1,-,N/A,,Overcast,70,2013-11-22 12:53:00
8:53 AM,78.1,69.1,74,30.15,9.0,ENE,18.4,25.3,0.00,Rain,Light Rain,70,2013-11-22 13:53:00
9:53 AM,78.1,68.0,71,30.16,10.0,ENE,20.7,27.6,0.00,,Mostly Cloudy,70,2013-11-22 14:53:00
10:53 AM,81.0,70.0,69,30.15,9.0,ENE,17.3,-,N/A,,Scattered Clouds,70,2013-11-22 15:53:00
11:53 AM,80.1,69.1,69,30.13,9.0,ENE,17.3,24.2,N/A,,Scattered Clouds,70,2013-11-22 16:53:00
12:53 PM,80.1,69.1,69,30.11,9.0,ENE,15.0,24.2,N/A,,Scattered Clouds,70,2013-11-22 17:53:00
1:53 PM,79.0,69.1,72,30.09,10.0,ENE,15.0,21.9,N/A,,Mostly Cloudy,70,2013-11-22 18:53:00
2:53 PM,80.1,68.0,67,30.08,10.0,ENE,15.0,-,N/A,,Mostly Cloudy,70,2013-11-22 19:53:00
3:53 PM,79.0,68.0,69,30.09,10.0,NE,15.0,-,N/A,,Mostly Cloudy,50,2013-11-22 20:53:00
4:53 PM,78.1,68.0,71,30.08,10.0,NE,11.5,-,N/A,,Scattered Clouds,50,2013-11-22 21:53:00
5:53 PM,77.0,68.0,74,30.09,10.0,NE,13.8,-,N/A,,Scattered Clouds,50,2013-11-22 22:53:00
6:53 PM,77.0,68.0,74,30.09,10.0,NE,10.4,-,N/A,,Scattered Clouds,50,2013-11-22 23:53:00
7:53 PM,77.0,68.0,74,30.09,10.0,ENE,12.7,-,N/A,,Scattered Clouds,60,2013-11-23 00:53:00
8:53 PM,77.0,69.1,76,30.10,10.0,NE,10.4,-,N/A,,Overcast,50,2013-11-23 01:53:00
9:25 PM,77.0,69.8,78,30.10,10.0,ENE,12.7,20.7,0.00,,Overcast,60,2013-11-23 02:25:00
9:53 PM,77.0,69.1,76,30.10,10.0,ENE,12.7,21.9,0.00,,Overcast,60,2013-11-23 02:53:00
10:53 PM,77.0,69.1,76,30.10,10.0,ENE,10.4,-,N/A,,Overcast,60,2013-11-23 03:53:00
11:53 PM,75.9,70.0,82,30.09,10.0,NE,11.5,19.6,0.00,,Overcast,50,2013-11-23 04:53:00